| time (UTC) | temp C | wind direction | speed KPH | gust KPH | rain 1hr cm | rain 24hr cm | rain mn cm | humidity % | barometer mb |
| 20260902024427 | 17 | 231 | 8.0 | 12.9 | 0.00 | 0.00 | 0.00 | 66 | 1017.9 |
| 20260902023921 | 18 | 229 | 6.4 | 27.4 | 0.00 | 0.00 | 0.00 | 64 | 1018.0 |
| 20260902023417 | 18 | 335 | 6.4 | 16.1 | 0.00 | 0.00 | 0.00 | 63 | 1018.1 |
| 20260902022916 | 18 | 296 | 8.0 | 11.3 | 0.00 | 0.00 | 0.00 | 62 | 1018.1 |
| 20260902022412 | 18 | 210 | 8.0 | 14.5 | 0.00 | 0.00 | 0.00 | 62 | 1017.9 |
| 20260902021907 | 18 | 145 | 11.3 | 14.5 | 0.00 | 0.00 | 0.00 | 61 | 1017.8 |
| 20260902021402 | 18 | 290 | 8.0 | 12.9 | 0.00 | 0.00 | 0.00 | 60 | 1017.8 |
| 20260902020858 | 18 | 233 | 12.9 | 16.1 | 0.00 | 0.00 | 0.00 | 59 | 1017.7 |
| 20260902020354 | 19 | 97 | 6.4 | 9.7 | 0.00 | 0.00 | 0.00 | 58 | 1017.6 |
| 20260902015849 | 19 | 293 | 4.8 | 12.9 | 0.00 | 0.00 | 0.00 | 58 | 1017.6 |
| 20260902015344 | 19 | 204 | 6.4 | 6.4 | 0.00 | 0.00 | 0.00 | 58 | 1017.6 |
| 20260902014840 | 20 | 285 | 4.8 | 14.5 | 0.00 | 0.00 | 0.00 | 58 | 1017.6 |
| 20260902014336 | 20 | 252 | 6.4 | 12.9 | 0.00 | 0.00 | 0.00 | 57 | 1017.8 |
| 20260902013835 | 20 | 282 | 4.8 | 11.3 | 0.00 | 0.00 | 0.00 | 55 | 1017.5 |
| 20260902013331 | 20 | 263 | 1.6 | 14.5 | 0.00 | 0.00 | 0.00 | 55 | 1017.5 |
| 20260902012826 | 20 | 181 | 6.4 | 16.1 | 0.00 | 0.00 | 0.00 | 54 | 1017.6 |
| 20260902012322 | 20 | 251 | 11.3 | 17.7 | 0.00 | 0.00 | 0.00 | 54 | 1017.4 |
| 20260902011818 | 21 | 311 | 11.3 | 12.9 | 0.00 | 0.00 | 0.00 | 53 | 1017.3 |
| 20260902011312 | 21 | 235 | 8.0 | 14.5 | 0.00 | 0.00 | 0.00 | 52 | 1017.2 |
| 20260902010811 | 21 | 10 | 1.6 | 9.7 | 0.00 | 0.00 | 0.00 | 52 | 1017.4 |
| 20260902010307 | 21 | 186 | 3.2 | 22.5 | 0.00 | 0.00 | 0.00 | 51 | 1017.5 |
| 20260902005806 | 21 | 277 | 8.0 | 11.3 | 0.00 | 0.00 | 0.00 | 51 | 1017.5 |
| 20260902005300 | 21 | 254 | 12.9 | 16.1 | 0.00 | 0.00 | 0.00 | 50 | 1017.3 |
| 20260902004755 | 21 | 305 | 4.8 | 12.9 | 0.00 | 0.00 | 0.00 | 50 | 1017.4 |
| 20260902004250 | 21 | 290 | 8.0 | 11.3 | 0.00 | 0.00 | 0.00 | 50 | 1017.3 |
| 20260902003745 | 21 | 272 | 4.8 | 9.7 | 0.00 | 0.00 | 0.00 | 50 | 1017.2 |
| 20260902003241 | 22 | 244 | 1.6 | 9.7 | 0.00 | 0.00 | 0.00 | 49 | 1017.3 |
| 20260902002736 | 21 | 260 | 9.7 | 17.7 | 0.00 | 0.00 | 0.00 | 51 | 1017.3 |
| 20260902002236 | 22 | 248 | 6.4 | 14.5 | 0.00 | 0.00 | 0.00 | 50 | 1017.5 |
| 20260902001732 | 22 | 280 | 3.2 | 16.1 | 0.00 | 0.00 | 0.00 | 49 | 1017.6 |
| 20260902001231 | 22 | 293 | 3.2 | 14.5 | 0.00 | 0.00 | 0.00 | 50 | 1017.1 |
| 20260902000725 | 23 | 265 | 3.2 | 4.8 | 0.00 | 0.00 | 0.00 | 47 | 1017.2 |
| 20260902000221 | 22 | 286 | 1.6 | 17.7 | 0.00 | 0.00 | 0.00 | 48 | 1017.4 |
| 20260901235715 | 22 | 224 | 12.9 | 16.1 | 0.00 | 0.00 | 0.00 | 47 | 1017.2 |
| 20260901235210 | 22 | 293 | 8.0 | 11.3 | 0.00 | 0.00 | 0.00 | 47 | 1017.2 |
| 20260901234703 | 22 | 176 | 6.4 | 20.9 | 0.00 | 0.00 | 0.00 | 46 | 1017.2 |
| 20260901234158 | 23 | 205 | 8.0 | 11.3 | 0.00 | 0.00 | 0.00 | 46 | 1017.3 |
| 20260901233653 | 22 | 280 | 8.0 | 16.1 | 0.00 | 0.00 | 0.00 | 46 | 1017.4 |
| 20260901233149 | 22 | 174 | 9.7 | 11.3 | 0.00 | 0.00 | 0.00 | 46 | 1017.3 |
| 20260901232643 | 22 | 188 | 6.4 | 17.7 | 0.00 | 0.00 | 0.00 | 46 | 1017.4 |
| 20260901232133 | 23 | 241 | 3.2 | 22.5 | 0.00 | 0.00 | 0.00 | 46 | 1017.3 |
| 20260901231630 | 23 | 250 | 11.3 | 14.5 | 0.00 | 0.00 | 0.00 | 45 | 1017.5 |
| 20260901231126 | 23 | 288 | 4.8 | 9.7 | 0.00 | 0.00 | 0.00 | 46 | 1017.6 |
| 20260901230621 | 23 | 221 | 9.7 | 12.9 | 0.00 | 0.00 | 0.00 | 45 | 1017.6 |
| 20260901230115 | 23 | 262 | 4.8 | 9.7 | 0.00 | 0.00 | 0.00 | 44 | 1017.6 |
| 20260901225611 | 23 | 200 | 8.0 | 17.7 | 0.00 | 0.00 | 0.00 | 45 | 1017.6 |
| 20260901225110 | 23 | 197 | 4.8 | 9.7 | 0.00 | 0.00 | 0.00 | 46 | 1017.5 |
| 20260901224607 | 23 | 249 | 8.0 | 11.3 | 0.00 | 0.00 | 0.00 | 44 | 1017.5 |
| 20260901224103 | 23 | 262 | 3.2 | 11.3 | 0.00 | 0.00 | 0.00 | 46 | 1017.6 |
| 20260901223557 | 22 | 256 | 12.9 | 22.5 | 0.00 | 0.00 | 0.00 | 46 | 1017.5 |
| 20260901223053 | 23 | 271 | 3.2 | 22.5 | 0.00 | 0.00 | 0.00 | 45 | 1017.7 |
| 20260901222549 | 23 | 209 | 12.9 | 16.1 | 0.00 | 0.00 | 0.00 | 46 | 1017.7 |
| 20260901222045 | 23 | 229 | 6.4 | 17.7 | 0.00 | 0.00 | 0.00 | 45 | 1017.7 |
| 20260901221540 | 22 | 195 | 1.6 | 6.4 | 0.00 | 0.00 | 0.00 | 47 | 1017.8 |
| 20260901221035 | 22 | 166 | 6.4 | 12.9 | 0.00 | 0.00 | 0.00 | 49 | 1017.7 |
| 20260901220530 | 23 | 124 | 9.7 | 17.7 | 0.00 | 0.00 | 0.00 | 48 | 1017.8 |
| 20260901220028 | 22 | 135 | 4.8 | 11.3 | 0.00 | 0.00 | 0.00 | 48 | 1017.9 |
| 20260901215527 | 23 | 229 | 8.0 | 17.7 | 0.00 | 0.00 | 0.00 | 47 | 1017.8 |
| 20260901215027 | 23 | 174 | 4.8 | 14.5 | 0.00 | 0.00 | 0.00 | 49 | 1017.7 |
| 20260901214525 | 23 | 260 | 9.7 | 14.5 | 0.00 | 0.00 | 0.00 | 48 | 1017.7 |
| 20260901214019 | 23 | 249 | 6.4 | 14.5 | 0.00 | 0.00 | 0.00 | 48 | 1017.9 |
| 20260901213514 | 23 | 136 | 8.0 | 14.5 | 0.00 | 0.00 | 0.00 | 47 | 1018.1 |
| 20260901213008 | 22 | 215 | 12.9 | 16.1 | 0.00 | 0.00 | 0.00 | 47 | 1017.8 |
| 20260901212503 | 24 | 176 | 1.6 | 6.4 | 0.00 | 0.00 | 0.00 | 44 | 1017.8 |
| 20260901212000 | 23 | 47 | 9.7 | 16.1 | 0.00 | 0.00 | 0.00 | 46 | 1017.7 |
| 20260901211455 | 23 | 133 | 6.4 | 16.1 | 0.00 | 0.00 | 0.00 | 44 | 1017.7 |
| 20260901210951 | 23 | 285 | 6.4 | 11.3 | 0.00 | 0.00 | 0.00 | 44 | 1017.8 |
| 20260901210446 | 23 | 260 | 3.2 | 16.1 | 0.00 | 0.00 | 0.00 | 44 | 1017.8 |
| 20260901205942 | 23 | 138 | 6.4 | 16.1 | 0.00 | 0.00 | 0.00 | 45 | 1017.8 |
| 20260901205436 | 23 | 164 | 6.4 | 11.3 | 0.00 | 0.00 | 0.00 | 43 | 1018.0 |
| 20260901204931 | 23 | 333 | 4.8 | 12.9 | 0.00 | 0.00 | 0.00 | 45 | 1018.0 |
| 20260901204428 | 23 | 218 | 8.0 | 12.9 | 0.00 | 0.00 | 0.00 | 44 | 1017.9 |
| 20260901203927 | 23 | 186 | 9.7 | 14.5 | 0.00 | 0.00 | 0.00 | 44 | 1017.9 |
| 20260901203422 | 24 | 99 | 4.8 | 9.7 | 0.00 | 0.00 | 0.00 | 42 | 1018.0 |
| 20260901202918 | 23 | 123 | 6.4 | 11.3 | 0.00 | 0.00 | 0.00 | 43 | 1017.9 |
| 20260901202412 | 23 | 285 | 4.8 | 11.3 | 0.00 | 0.00 | 0.00 | 44 | 1018.3 |
| 20260901201909 | 23 | 262 | 6.4 | 12.9 | 0.00 | 0.00 | 0.00 | 45 | 1018.2 |
| 20260901201408 | 22 | 211 | 6.4 | 11.3 | 0.00 | 0.00 | 0.00 | 46 | 1018.1 |
| 20260901200902 | 22 | 205 | 4.8 | 9.7 | 0.00 | 0.00 | 0.00 | 45 | 1018.2 |
| 20260901200357 | 22 | 292 | 3.2 | 12.9 | 0.00 | 0.00 | 0.00 | 46 | 1018.5 |
| 20260901195855 | 23 | 237 | 6.4 | 12.9 | 0.00 | 0.00 | 0.00 | 45 | 1018.4 |
| 20260901195349 | 23 | 243 | 6.4 | 11.3 | 0.00 | 0.00 | 0.00 | 45 | 1018.5 |
| 20260901194844 | 22 | 322 | 14.5 | 17.7 | 0.00 | 0.00 | 0.00 | 45 | 1018.4 |
| 20260901194338 | 23 | 267 | 8.0 | 11.3 | 0.00 | 0.00 | 0.00 | 45 | 1018.4 |
| 20260901193835 | 22 | 148 | 3.2 | 12.9 | 0.00 | 0.00 | 0.00 | 46 | 1018.4 |
| 20260901193334 | 22 | 23 | 1.6 | 14.5 | 0.00 | 0.00 | 0.00 | 46 | 1018.5 |
| 20260901192829 | 22 | 281 | 8.0 | 14.5 | 0.00 | 0.00 | 0.00 | 47 | 1018.7 |
| 20260901192325 | 21 | 332 | 6.4 | 14.5 | 0.00 | 0.00 | 0.00 | 50 | 1018.7 |
| 20260901191820 | 22 | 283 | 6.4 | 20.9 | 0.00 | 0.00 | 0.00 | 49 | 1018.5 |
| 20260901191315 | 22 | 218 | 3.2 | 12.9 | 0.00 | 0.00 | 0.00 | 49 | 1018.6 |
| 20260901190811 | 22 | 335 | 8.0 | 12.9 | 0.00 | 0.00 | 0.00 | 48 | 1018.6 |
| 20260901190305 | 22 | 118 | 4.8 | 11.3 | 0.00 | 0.00 | 0.00 | 49 | 1018.6 |
| 20260901185803 | 22 | 158 | 6.4 | 12.9 | 0.00 | 0.00 | 0.00 | 48 | 1018.9 |
| 20260901185305 | 21 | 171 | 6.4 | 11.3 | 0.00 | 0.00 | 0.00 | 51 | 1018.8 |
| 20260901184758 | 21 | 184 | 9.7 | 11.3 | 0.00 | 0.00 | 0.00 | 51 | 1018.9 |
| 20260901184253 | 21 | 118 | 8.0 | 14.5 | 0.00 | 0.00 | 0.00 | 51 | 1018.8 |
| 20260901183749 | 22 | 225 | 4.8 | 9.7 | 0.00 | 0.00 | 0.00 | 51 | 1018.8 |
| 20260901183249 | 21 | 307 | 6.4 | 12.9 | 0.00 | 0.00 | 0.00 | 51 | 1019.0 |
| 20260901182745 | 21 | 225 | 3.2 | 9.7 | 0.00 | 0.00 | 0.00 | 52 | 1018.7 |
| 20260901182244 | 22 | 293 | 4.8 | 11.3 | 0.00 | 0.00 | 0.00 | 52 | 1018.8 |
| 20260901181739 | 21 | 163 | 4.8 | 14.5 | 0.00 | 0.00 | 0.00 | 54 | 1018.7 |
| 20260901181233 | 21 | 297 | 6.4 | 12.9 | 0.00 | 0.00 | 0.00 | 56 | 1018.7 |
| 20260901180727 | 20 | 225 | 6.4 | 11.3 | 0.00 | 0.00 | 0.00 | 57 | 1018.8 |
| 20260901180227 | 21 | 159 | 1.6 | 14.5 | 0.00 | 0.00 | 0.00 | 56 | 1018.6 |
| 20260901175726 | 21 | 283 | 4.8 | 11.3 | 0.00 | 0.00 | 0.00 | 55 | 1018.3 |
| 20260901175221 | 21 | 220 | 8.0 | 14.5 | 0.00 | 0.00 | 0.00 | 57 | 1018.5 |
| 20260901174716 | 20 | 47 | 4.8 | 9.7 | 0.00 | 0.00 | 0.00 | 56 | 1018.5 |
| 20260901174211 | 21 | 258 | 4.8 | 6.4 | 0.00 | 0.00 | 0.00 | 55 | 1018.6 |
| 20260901173707 | 20 | 138 | 6.4 | 11.3 | 0.00 | 0.00 | 0.00 | 58 | 1018.4 |
| 20260901173201 | 20 | 136 | 3.2 | 11.3 | 0.00 | 0.00 | 0.00 | 58 | 1018.4 |
| 20260901172658 | 20 | 307 | 4.8 | 12.9 | 0.00 | 0.00 | 0.00 | 57 | 1018.3 |
| 20260901172155 | 20 | 262 | 6.4 | 9.7 | 0.00 | 0.00 | 0.00 | 56 | 1018.2 |
| 20260901171649 | 20 | 324 | 4.8 | 11.3 | 0.00 | 0.00 | 0.00 | 56 | 1018.3 |
| 20260901171148 | 20 | 80 | 1.6 | 12.9 | 0.00 | 0.00 | 0.00 | 56 | 1018.4 |
| 20260901170643 | 20 | 199 | 4.8 | 12.9 | 0.00 | 0.00 | 0.00 | 56 | 1018.1 |
| 20260901170143 | 20 | 302 | 6.4 | 11.3 | 0.00 | 0.00 | 0.00 | 56 | 1018.1 |
| 20260901165641 | 20 | 168 | 3.2 | 11.3 | 0.00 | 0.00 | 0.00 | 56 | 1018.1 |
| 20260901165132 | 20 | 203 | 8.0 | 17.7 | 0.00 | 0.00 | 0.00 | 57 | 1018.1 |
| 20260901164628 | 20 | 87 | 3.2 | 11.3 | 0.00 | 0.00 | 0.00 | 57 | 1018.1 |
| 20260901164123 | 20 | 39 | 4.8 | 6.4 | 0.00 | 0.00 | 0.00 | 58 | 1018.1 |
| 20260901163618 | 20 | 212 | 8.0 | 12.9 | 0.00 | 0.00 | 0.00 | 62 | 1018.0 |
| 20260901163117 | 20 | 176 | 6.4 | 16.1 | 0.00 | 0.00 | 0.00 | 63 | 1018.0 |
| 20260901162612 | 20 | 247 | 8.0 | 14.5 | 0.00 | 0.00 | 0.00 | 62 | 1018.4 |
| 20260901162111 | 19 | 97 | 6.4 | 12.9 | 0.00 | 0.00 | 0.00 | 62 | 1018.1 |
| 20260901161610 | 19 | 171 | 6.4 | 12.9 | 0.00 | 0.00 | 0.00 | 62 | 1018.1 |
| 20260901161110 | 19 | 192 | 8.0 | 14.5 | 0.00 | 0.00 | 0.00 | 62 | 1018.2 |
| 20260901160607 | 19 | 308 | 6.4 | 17.7 | 0.00 | 0.00 | 0.00 | 59 | 1018.0 |
| 20260901155601 | 19 | 135 | 1.6 | 11.3 | 0.00 | 0.00 | 0.00 | 64 | 1017.5 |
| 20260901155056 | 18 | 222 | 9.7 | 12.9 | 0.00 | 0.00 | 0.00 | 64 | 1017.8 |
| 20260901154556 | 18 | 269 | 6.4 | 12.9 | 0.00 | 0.00 | 0.00 | 65 | 1017.7 |
| 20260901154045 | 18 | 172 | 9.7 | 14.5 | 0.00 | 0.00 | 0.00 | 66 | 1017.8 |
| 20260901153540 | 18 | 10 | 4.8 | 14.5 | 0.00 | 0.00 | 0.00 | 65 | 1017.5 |
| 20260901153034 | 18 | 189 | 9.7 | 14.5 | 0.00 | 0.00 | 0.00 | 65 | 1017.5 |
| 20260901152529 | 18 | 180 | 8.0 | 16.1 | 0.00 | 0.00 | 0.00 | 69 | 1017.6 |
| 20260901152028 | 17 | 183 | 6.4 | 16.1 | 0.00 | 0.00 | 0.00 | 70 | 1017.3 |
| 20260901151524 | 18 | 205 | 8.0 | 14.5 | 0.00 | 0.00 | 0.00 | 69 | 1017.3 |
| 20260901151023 | 17 | 184 | 4.8 | 16.1 | 0.00 | 0.00 | 0.00 | 67 | 1017.3 |
| 20260901150521 | 17 | 211 | 4.8 | 12.9 | 0.00 | 0.00 | 0.00 | 67 | 1017.3 |
| 20260901150019 | 17 | 345 | 4.8 | 14.5 | 0.00 | 0.00 | 0.00 | 65 | 1017.0 |
| 20260901145512 | 17 | 181 | 3.2 | 12.9 | 0.00 | 0.00 | 0.00 | 66 | 1017.1 |
| 20260901145007 | 17 | 144 | 3.2 | 11.3 | 0.00 | 0.00 | 0.00 | 67 | 1017.0 |
| 20260901144503 | 17 | 201 | 6.4 | 14.5 | 0.00 | 0.00 | 0.00 | 69 | 1016.9 |
| 20260901143957 | 17 | 174 | 3.2 | 11.3 | 0.00 | 0.00 | 0.00 | 69 | 1017.1 |
| 20260901143453 | 17 | 136 | 6.4 | 16.1 | 0.00 | 0.00 | 0.00 | 70 | 1016.8 |
| 20260901142949 | 17 | 55 | 4.8 | 14.5 | 0.00 | 0.00 | 0.00 | 68 | 1016.8 |
| 20260901142444 | 17 | 97 | 4.8 | 12.9 | 0.00 | 0.00 | 0.00 | 70 | 1016.9 |
| 20260901141938 | 16 | 141 | 3.2 | 6.4 | 0.00 | 0.00 | 0.00 | 71 | 1016.7 |
| 20260901141433 | 16 | 230 | 4.8 | 9.7 | 0.00 | 0.00 | 0.00 | 71 | 1016.7 |
| 20260901140928 | 16 | 237 | 9.7 | 12.9 | 0.00 | 0.00 | 0.00 | 71 | 1016.7 |
| 20260901140426 | 16 | 137 | 4.8 | 17.7 | 0.00 | 0.00 | 0.00 | 72 | 1016.6 |
| 20260901135920 | 16 | 218 | 6.4 | 9.7 | 0.00 | 0.00 | 0.00 | 71 | 1016.7 |
| 20260901135415 | 16 | 196 | 4.8 | 9.7 | 0.00 | 0.00 | 0.00 | 72 | 1016.6 |
| 20260901134911 | 16 | 150 | 4.8 | 11.3 | 0.00 | 0.00 | 0.00 | 73 | 1016.4 |
| 20260901134407 | 16 | 224 | 6.4 | 11.3 | 0.00 | 0.00 | 0.00 | 74 | 1016.4 |
| 20260901133906 | 16 | 231 | 11.3 | 14.5 | 0.00 | 0.00 | 0.00 | 74 | 1016.3 |
| 20260901133400 | 16 | 225 | 9.7 | 16.1 | 0.00 | 0.00 | 0.00 | 74 | 1016.1 |
| 20260901132858 | 16 | 170 | 3.2 | 6.4 | 0.00 | 0.00 | 0.00 | 75 | 1016.2 |
| 20260901132353 | 16 | 186 | 3.2 | 11.3 | 0.00 | 0.00 | 0.00 | 74 | 1016.3 |
| 20260901131847 | 16 | 160 | 8.0 | 11.3 | 0.00 | 0.00 | 0.00 | 73 | 1016.3 |
| 20260901131346 | 16 | 191 | 8.0 | 16.1 | 0.00 | 0.00 | 0.00 | 74 | 1016.1 |
| 20260901130842 | 16 | 192 | 6.4 | 11.3 | 0.00 | 0.00 | 0.00 | 75 | 1016.3 |
| 20260901130337 | 16 | 208 | 4.8 | 12.9 | 0.00 | 0.00 | 0.00 | 78 | 1016.4 |
| 20260901125835 | 16 | 218 | 3.2 | 9.7 | 0.00 | 0.00 | 0.00 | 79 | 1016.3 |
| 20260901125334 | 16 | 203 | 8.0 | 12.9 | 0.00 | 0.00 | 0.00 | 79 | 1016.1 |
| 20260901124829 | 16 | 197 | 3.2 | 11.3 | 0.00 | 0.00 | 0.00 | 79 | 1015.9 |
| 20260901124324 | 15 | 203 | 6.4 | 11.3 | 0.00 | 0.00 | 0.00 | 79 | 1016.2 |
| 20260901123824 | 15 | 151 | 4.8 | 9.7 | 0.00 | 0.00 | 0.00 | 79 | 1016.0 |
| 20260901123319 | 15 | 176 | 4.8 | 6.4 | 0.00 | 0.00 | 0.00 | 79 | 1016.1 |
| 20260901122817 | 16 | 188 | 4.8 | 6.4 | 0.00 | 0.00 | 0.00 | 79 | 1016.0 |
| 20260901122312 | 16 | 153 | 8.0 | 14.5 | 0.00 | 0.00 | 0.00 | 78 | 1015.8 |
| 20260901121811 | 16 | 153 | 9.7 | 14.5 | 0.00 | 0.00 | 0.00 | 77 | 1015.7 |
| 20260901121307 | 16 | 197 | 3.2 | 12.9 | 0.00 | 0.00 | 0.00 | 78 | 1015.6 |
| 20260901120806 | 16 | 170 | 6.4 | 14.5 | 0.00 | 0.00 | 0.00 | 78 | 1015.6 |
| 20260901120301 | 16 | 203 | 11.3 | 16.1 | 0.00 | 0.00 | 0.00 | 78 | 1015.6 |
| 20260901115757 | 16 | 295 | 4.8 | 16.1 | 0.00 | 0.00 | 0.00 | 77 | 1015.9 |
| 20260901115252 | 16 | 306 | 8.0 | 16.1 | 0.00 | 0.00 | 0.00 | 77 | 1015.6 |
| 20260901114749 | 16 | 200 | 4.8 | 14.5 | 0.00 | 0.00 | 0.00 | 76 | 1015.9 |
| 20260901114245 | 16 | 189 | 6.4 | 12.9 | 0.00 | 0.00 | 0.00 | 75 | 1015.8 |
| 20260901113742 | 16 | 174 | 9.7 | 14.5 | 0.00 | 0.00 | 0.00 | 75 | 1015.8 |
| 20260901113237 | 16 | 155 | 6.4 | 12.9 | 0.00 | 0.00 | 0.00 | 76 | 1015.6 |
| 20260901112732 | 16 | 190 | 9.7 | 16.1 | 0.00 | 0.00 | 0.00 | 76 | 1015.8 |
| 20260901112232 | 16 | 296 | 6.4 | 12.9 | 0.00 | 0.00 | 0.00 | 76 | 1015.9 |
| 20260901111727 | 16 | 95 | 6.4 | 14.5 | 0.00 | 0.00 | 0.00 | 76 | 1016.0 |
| 20260901111226 | 16 | 175 | 3.2 | 9.7 | 0.00 | 0.00 | 0.00 | 76 | 1015.8 |
| 20260901110720 | 16 | 212 | 4.8 | 16.1 | 0.00 | 0.00 | 0.00 | 76 | 1015.6 |
| 20260901110215 | 16 | 219 | 4.8 | 12.9 | 0.00 | 0.00 | 0.00 | 75 | 1015.8 |
| 20260901105712 | 16 | 167 | 6.4 | 11.3 | 0.00 | 0.00 | 0.00 | 75 | 1015.7 |
| 20260901105212 | 16 | 214 | 8.0 | 17.7 | 0.00 | 0.00 | 0.00 | 75 | 1015.7 |
| 20260901104708 | 16 | 188 | 4.8 | 9.7 | 0.00 | 0.00 | 0.00 | 75 | 1015.7 |
| 20260901104203 | 16 | 189 | 8.0 | 14.5 | 0.00 | 0.00 | 0.00 | 75 | 1015.7 |
| 20260901103702 | 16 | 225 | 4.8 | 11.3 | 0.00 | 0.00 | 0.00 | 75 | 1015.4 |
| 20260901103158 | 16 | 260 | 6.4 | 14.5 | 0.00 | 0.00 | 0.00 | 75 | 1015.5 |
| 20260901102658 | 16 | 234 | 6.4 | 14.5 | 0.00 | 0.00 | 0.00 | 75 | 1015.5 |
| 20260901102157 | 16 | 185 | 8.0 | 11.3 | 0.00 | 0.00 | 0.00 | 75 | 1015.5 |
| 20260901101653 | 16 | 238 | 8.0 | 16.1 | 0.00 | 0.00 | 0.00 | 74 | 1015.4 |
| 20260901101153 | 16 | 207 | 9.7 | 14.5 | 0.00 | 0.00 | 0.00 | 74 | 1015.3 |
| 20260901100647 | 16 | 217 | 9.7 | 12.9 | 0.00 | 0.00 | 0.00 | 73 | 1015.3 |
| 20260901100142 | 16 | 240 | 6.4 | 14.5 | 0.00 | 0.00 | 0.00 | 73 | 1015.3 |
| 20260901095640 | 16 | 347 | 6.4 | 16.1 | 0.00 | 0.00 | 0.00 | 74 | 1015.2 |
| 20260901095138 | 16 | 148 | 6.4 | 12.9 | 0.00 | 0.00 | 0.00 | 74 | 1015.2 |
| 20260901094632 | 16 | 282 | 11.3 | 25.7 | 0.00 | 0.00 | 0.00 | 73 | 1015.3 |
| 20260901094126 | 16 | 293 | 4.8 | 14.5 | 0.00 | 0.00 | 0.00 | 72 | 1015.4 |
| 20260901093616 | 16 | 166 | 4.8 | 11.3 | 0.00 | 0.00 | 0.00 | 74 | 1015.3 |
| 20260901093115 | 16 | 263 | 8.0 | 14.5 | 0.00 | 0.00 | 0.00 | 74 | 1015.5 |
| 20260901092611 | 16 | 312 | 4.8 | 11.3 | 0.00 | 0.00 | 0.00 | 74 | 1015.4 |
| 20260901092107 | 16 | 303 | 4.8 | 11.3 | 0.00 | 0.00 | 0.00 | 74 | 1015.7 |
| 20260901091603 | 16 | 200 | 4.8 | 14.5 | 0.00 | 0.00 | 0.00 | 74 | 1015.5 |
| 20260901091058 | 16 | 220 | 11.3 | 16.1 | 0.00 | 0.00 | 0.00 | 74 | 1015.4 |
| 20260901090557 | 16 | 154 | 9.7 | 17.7 | 0.00 | 0.00 | 0.00 | 73 | 1015.5 |
| 20260901090053 | 16 | 174 | 8.0 | 12.9 | 0.00 | 0.00 | 0.00 | 73 | 1015.4 |
| 20260901085548 | 16 | 187 | 6.4 | 16.1 | 0.00 | 0.00 | 0.00 | 73 | 1015.5 |
| 20260901085044 | 16 | 136 | 9.7 | 17.7 | 0.00 | 0.00 | 0.00 | 73 | 1015.5 |
| 20260901084540 | 16 | 165 | 9.7 | 12.9 | 0.00 | 0.00 | 0.00 | 73 | 1015.4 |
| 20260901084036 | 16 | 174 | 8.0 | 16.1 | 0.00 | 0.00 | 0.00 | 73 | 1015.5 |
| 20260901083530 | 16 | 186 | 4.8 | 12.9 | 0.00 | 0.00 | 0.00 | 73 | 1015.4 |
| 20260901083028 | 16 | 203 | 6.4 | 16.1 | 0.00 | 0.00 | 0.00 | 73 | 1015.6 |
| 20260901082524 | 16 | 209 | 9.7 | 16.1 | 0.00 | 0.00 | 0.00 | 73 | 1015.5 |
| 20260901082019 | 16 | 231 | 11.3 | 14.5 | 0.00 | 0.00 | 0.00 | 73 | 1015.5 |
| 20260901081514 | 16 | 201 | 9.7 | 14.5 | 0.00 | 0.00 | 0.00 | 73 | 1015.7 |
| 20260901081008 | 16 | 203 | 4.8 | 9.7 | 0.00 | 0.00 | 0.00 | 73 | 1015.5 |
| 20260901080508 | 16 | 205 | 6.4 | 12.9 | 0.00 | 0.00 | 0.00 | 73 | 1015.6 |
| 20260901080002 | 16 | 154 | 12.9 | 16.1 | 0.00 | 0.00 | 0.00 | 72 | 1015.6 |
| 20260901075458 | 16 | 293 | 4.8 | 12.9 | 0.00 | 0.00 | 0.00 | 72 | 1015.7 |
| 20260901074956 | 16 | 253 | 11.3 | 17.7 | 0.00 | 0.00 | 0.00 | 72 | 1015.5 |
| 20260901074451 | 16 | 121 | 1.6 | 14.5 | 0.00 | 0.00 | 0.00 | 72 | 1015.4 |
| 20260901073946 | 16 | 184 | 6.4 | 14.5 | 0.00 | 0.00 | 0.00 | 72 | 1015.4 |
| 20260901073443 | 16 | 198 | 11.3 | 17.7 | 0.00 | 0.00 | 0.00 | 72 | 1015.3 |
| 20260901072943 | 16 | 206 | 9.7 | 17.7 | 0.00 | 0.00 | 0.00 | 71 | 1015.4 |
| 20260901072438 | 16 | 173 | 9.7 | 16.1 | 0.00 | 0.00 | 0.00 | 71 | 1015.6 |
| 20260901071933 | 16 | 270 | 9.7 | 14.5 | 0.00 | 0.00 | 0.00 | 72 | 1015.5 |
| 20260901071432 | 16 | 253 | 6.4 | 17.7 | 0.00 | 0.00 | 0.00 | 72 | 1015.6 |
| 20260901070932 | 16 | 213 | 4.8 | 16.1 | 0.00 | 0.00 | 0.00 | 72 | 1015.6 |
| 20260901070427 | 16 | 194 | 4.8 | 16.1 | 0.00 | 0.00 | 0.00 | 72 | 1015.7 |
| 20260901065926 | 16 | 179 | 3.2 | 14.5 | 0.00 | 0.00 | 0.00 | 72 | 1015.6 |
| 20260901065422 | 16 | 170 | 9.7 | 14.5 | 0.00 | 0.00 | 0.00 | 73 | 1015.4 |
| 20260901064917 | 16 | 248 | 3.2 | 11.3 | 0.00 | 0.00 | 0.00 | 73 | 1015.5 |
| 20260901064413 | 16 | 214 | 9.7 | 14.5 | 0.00 | 0.00 | 0.00 | 73 | 1015.4 |
| 20260901063910 | 16 | 168 | 8.0 | 20.9 | 0.00 | 0.00 | 0.00 | 73 | 1015.5 |
| 20260901063406 | 16 | 356 | 4.8 | 12.9 | 0.00 | 0.00 | 0.00 | 73 | 1015.5 |
| 20260901062856 | 16 | 247 | 11.3 | 20.9 | 0.00 | 0.00 | 0.00 | 72 | 1015.7 |
| 20260901062352 | 16 | 233 | 8.0 | 14.5 | 0.00 | 0.00 | 0.00 | 72 | 1015.6 |
| 20260901061847 | 16 | 157 | 12.9 | 17.7 | 0.00 | 0.00 | 0.00 | 72 | 1015.7 |
| 20260901061342 | 16 | 166 | 8.0 | 17.7 | 0.00 | 0.00 | 0.00 | 72 | 1015.7 |
| 20260901060832 | 16 | 221 | 9.7 | 17.7 | 0.00 | 0.00 | 0.00 | 72 | 1015.7 |
| 20260901060328 | 16 | 189 | 8.0 | 11.3 | 0.00 | 0.00 | 0.00 | 72 | 1015.6 |
| 20260901055827 | 16 | 278 | 3.2 | 12.9 | 0.00 | 0.00 | 0.00 | 73 | 1015.9 |
| 20260901055324 | 16 | 267 | 12.9 | 20.9 | 0.00 | 0.00 | 0.00 | 73 | 1015.8 |
| 20260901054820 | 15 | 175 | 4.8 | 12.9 | 0.00 | 0.00 | 0.00 | 73 | 1015.7 |
| 20260901054317 | 15 | 307 | 6.4 | 11.3 | 0.00 | 0.00 | 0.00 | 73 | 1015.7 |
| 20260901053813 | 15 | 211 | 14.5 | 24.1 | 0.00 | 0.00 | 0.00 | 73 | 1015.7 |
| 20260901053307 | 15 | 210 | 8.0 | 12.9 | 0.00 | 0.00 | 0.00 | 74 | 1015.6 |
| 20260901052757 | 15 | 221 | 11.3 | 17.7 | 0.00 | 0.00 | 0.00 | 74 | 1015.7 |
| 20260901052253 | 15 | 148 | 6.4 | 11.3 | 0.00 | 0.00 | 0.00 | 73 | 1015.8 |
| 20260901051751 | 15 | 224 | 9.7 | 14.5 | 0.00 | 0.00 | 0.00 | 73 | 1015.5 |
| 20260901051246 | 15 | 218 | 9.7 | 14.5 | 0.00 | 0.00 | 0.00 | 73 | 1015.6 |
| 20260901050742 | 15 | 262 | 6.4 | 16.1 | 0.00 | 0.00 | 0.00 | 73 | 1015.5 |
| 20260901050237 | 15 | 155 | 3.2 | 22.5 | 0.00 | 0.00 | 0.00 | 73 | 1015.5 |
| 20260901045732 | 15 | 292 | 9.7 | 12.9 | 0.00 | 0.00 | 0.00 | 73 | 1015.6 |
| 20260901045227 | 15 | 166 | 9.7 | 12.9 | 0.00 | 0.00 | 0.00 | 73 | 1015.7 |
| 20260901044722 | 15 | 122 | 8.0 | 14.5 | 0.00 | 0.00 | 0.00 | 73 | 1015.5 |
| 20260901044219 | 15 | 197 | 6.4 | 16.1 | 0.00 | 0.00 | 0.00 | 73 | 1015.3 |
| 20260901043714 | 16 | 114 | 3.2 | 12.9 | 0.00 | 0.00 | 0.00 | 73 | 1015.5 |
| 20260901043209 | 16 | 194 | 6.4 | 16.1 | 0.00 | 0.00 | 0.00 | 72 | 1015.7 |
| 20260901042709 | 16 | 171 | 3.2 | 16.1 | 0.00 | 0.00 | 0.00 | 72 | 1015.6 |
| 20260901042203 | 16 | 227 | 9.7 | 17.7 | 0.00 | 0.00 | 0.00 | 72 | 1015.6 |
| 20260901041659 | 16 | 216 | 8.0 | 20.9 | 0.00 | 0.00 | 0.00 | 72 | 1015.5 |
| 20260901041158 | 16 | 177 | 6.4 | 20.9 | 0.00 | 0.00 | 0.00 | 72 | 1015.4 |
| 20260901040653 | 16 | 238 | 6.4 | 14.5 | 0.00 | 0.00 | 0.00 | 72 | 1015.4 |
| 20260901040147 | 16 | 356 | 4.8 | 12.9 | 0.00 | 0.00 | 0.00 | 72 | 1015.3 |
| 20260901035646 | 16 | 214 | 9.7 | 14.5 | 0.00 | 0.00 | 0.00 | 72 | 1015.2 |
| 20260901035144 | 16 | 199 | 14.5 | 20.9 | 0.00 | 0.00 | 0.00 | 73 | 1015.3 |
| 20260901034638 | 16 | 145 | 16.1 | 24.1 | 0.00 | 0.00 | 0.00 | 73 | 1014.9 |
| 20260901034133 | 16 | 195 | 12.9 | 24.1 | 0.00 | 0.00 | 0.00 | 73 | 1014.9 |
| 20260901033632 | 16 | 189 | 9.7 | 25.7 | 0.00 | 0.00 | 0.00 | 72 | 1014.8 |
| 20260901033132 | 16 | 162 | 17.7 | 27.4 | 0.00 | 0.00 | 0.00 | 73 | 1014.6 |
| 20260901032630 | 16 | 205 | 8.0 | 25.7 | 0.00 | 0.00 | 0.00 | 73 | 1014.7 |
| 20260901032126 | 16 | 218 | 16.1 | 25.7 | 0.00 | 0.00 | 0.00 | 73 | 1014.2 |
| 20260901031621 | 16 | 213 | 17.7 | 25.7 | 0.00 | 0.00 | 0.00 | 72 | 1014.4 |
| 20260901031117 | 16 | 237 | 12.9 | 25.7 | 0.00 | 0.00 | 0.00 | 72 | 1014.5 |
| 20260901030617 | 16 | 263 | 9.7 | 25.7 | 0.00 | 0.00 | 0.00 | 72 | 1014.4 |
| 20260901030111 | 16 | 206 | 16.1 | 22.5 | 0.00 | 0.00 | 0.00 | 72 | 1014.3 |
| 20260901025606 | 16 | 192 | 14.5 | 20.9 | 0.00 | 0.00 | 0.00 | 72 | 1014.3 |
| 20260901025101 | 16 | 121 | 12.9 | 29.0 | 0.00 | 0.00 | 0.00 | 72 | 1014.8 |